Eindhoven, Netherlands

4:09 PM CEST on September 20, 2017 (GMT +0200)
Eindhoven Air Base

Weather History for EHEH - March, 2014

Change the Weather History Date:

Friday, March 21, 2014

  Actual Average Record
Temperature  
Mean Temperature 44 °F -  
Max Temperature 51 °F 55 °F 62 °F (2005)
Min Temperature 37 °F 38 °F 24 °F (2009)
Degree Days  
Heating Degree Days 21    
Moisture  
Dew Point 43 °F    
Average Humidity 82    
Maximum Humidity 100    
Minimum Humidity 37    
Precipitation  
Precipitation 0.28 in - - ()
Sea Level Pressure  
Sea Level Pressure 29.73 in    
Wind  
Wind Speed 9 mph ()    
Max Wind Speed 18 mph    
Max Gust Speed 24 mph    
Visibility 6.2 miles    
Events Rain    
Averages and records for this station are not official NWS values.
T = Trace of Precipitation, MM = Missing Value Source: Averaged Metar Reports

Daily Weather History Graph

Daily Weather History Graph

Search for Another Location

Airport or City:

Trip Planner

Search our weather history database for the weather conditions in past years. The results will help you decide how hot, cold, wet, or windy it might be!

Date:

Astronomy

Mar. 21, 2014 Rise Set
Actual Time 6:39 AM CET 6:52 PM CET
Civil Twilight 6:05 AM CET 7:26 PM CET
Nautical Twilight 5:26 AM CET 8:05 PM CET
Astronomical Twilight 4:45 AM CET 8:46 PM CET
Moon No Moon Rise 8:48 AM CET (3/21)
Length of Visible Light 13h 20m
Length of Day
12h 13m
Waning Gibbous, 77% of the Moon is Illuminated
Mar 21
Waning Gibbous
Mar 24
Last Quarter
Mar 30
New
Apr 7
First Quarter
Apr 15
Full

Hourly Weather History & Observations

Time (CET) Temp. Windchill Dew Point Humidity Pressure Visibility Wind Dir Wind Speed Gust Speed Precip Events Conditions
12:00 AM 55 °F - 41 °F 49% 29.73 in 22 mi SSW 8.9 mph - -   Mostly Cloudy
12:25 AM 53.6 °F - 41.0 °F 62% 29.71 in 6.2 mi SSW 8.1 mph - N/A   Mostly Cloudy
12:55 AM 55.4 °F - 41.0 °F 58% 29.71 in 6.2 mi SSW 10.4 mph - N/A   Partly Cloudy
1:00 AM 56 °F - 41 °F 47% 29.72 in 22 mi SSW 11.2 mph - -   Partly Cloudy
1:25 AM 55.4 °F - 41.0 °F 58% 29.71 in 6.2 mi SSW 10.4 mph - N/A   Overcast
1:55 AM 53.6 °F - 41.0 °F 62% 29.71 in 6.2 mi SSW 8.1 mph - N/A   Scattered Clouds
2:00 AM 52 °F - 42 °F 59% 29.73 in 19 mi SW 8.9 mph - -   Scattered Clouds
2:25 AM 53.6 °F - 44.6 °F 72% 29.71 in 6.2 mi West 9.2 mph - N/A   Overcast
2:55 AM 53.6 °F - 44.6 °F 72% 29.71 in 6.2 mi West 11.5 mph - N/A   Overcast
3:00 AM 54 °F - 45 °F 63% 29.73 in 9 mi WSW 11.2 mph - -   Overcast
3:25 AM 53.6 °F - 44.6 °F 72% 29.71 in 6.2 mi SW 9.2 mph - N/A   Overcast
3:55 AM 53.6 °F - 44.6 °F 72% 29.71 in 6.2 mi SW 11.5 mph - N/A   Overcast
4:00 AM 54 °F - 45 °F 64% 29.73 in 10 mi WSW 11.2 mph - -   Overcast
4:25 AM 53.6 °F - 44.6 °F 72% 29.71 in 6.2 mi SW 10.4 mph - N/A   Overcast
4:55 AM 53.6 °F - 46.4 °F 77% 29.71 in 6.2 mi SW 12.7 mph - N/A   Overcast
5:00 AM 53 °F - 46 °F 69% 29.71 in 9 mi SW 13.4 mph - -   Overcast
5:25 AM 53.6 °F - 46.4 °F 77% 29.71 in 6.2 mi WSW 12.7 mph - N/A   Overcast
5:55 AM 51.8 °F - 46.4 °F 82% 29.68 in 6.2 mi WSW 10.4 mph - N/A   Overcast
6:00 AM 52 °F - 47 °F 76% 29.71 in 7 mi WSW 11.2 mph - -   Overcast
6:06 AM 51.8 °F - 46.4 °F 82% 29.68 in 6.2 mi WSW 10.4 mph - N/A   Overcast
6:10 AM 51.8 °F - 46.4 °F 82% 29.68 in 6.2 mi WSW 9.2 mph - N/A   Overcast
6:14 AM 51.8 °F - 46.4 °F 82% 29.68 in 6.2 mi WSW 8.1 mph - N/A   Overcast
6:18 AM 51.8 °F - 46.4 °F 82% 29.68 in 6.2 mi WSW 10.4 mph - N/A   Overcast
6:25 AM 51.8 °F - 46.4 °F 82% 29.68 in 6.2 mi WSW 12.7 mph - N/A   Overcast
6:33 AM 51.8 °F - 48.2 °F 88% 29.68 in 6.2 mi WSW 13.8 mph - N/A   Overcast
6:55 AM 51.8 °F - 48.2 °F 88% 29.68 in 6.2 mi WSW 10.4 mph - N/A   Overcast
7:00 AM 51 °F - 47 °F 82% 29.70 in 7 mi SW 8.9 mph - -   Partly Cloudy
7:09 AM 51.8 °F - 46.4 °F 82% 29.68 in 6.2 mi SW 9.2 mph - N/A   Mostly Cloudy
7:13 AM 51.8 °F - 48.2 °F 88% 29.68 in 3.7 mi SSW 8.1 mph - N/A Rain Light Rain
7:17 AM 50.0 °F - 48.2 °F 94% 29.68 in - SSW 8.1 mph - N/A   Heavy Drizzle
7:25 AM 50.0 °F - 48.2 °F 94% 29.68 in 3.1 mi SSW 8.1 mph - N/A   Drizzle
7:31 AM 50.0 °F - 48.2 °F 94% 29.68 in - SSW 5.8 mph - N/A   Drizzle
7:35 AM 50.0 °F - 48.2 °F 94% 29.68 in 3.1 mi SSW 5.8 mph - N/A   Drizzle
7:48 AM 50.0 °F - 48.2 °F 94% 29.68 in 4.3 mi South 5.8 mph - N/A   Overcast
7:55 AM 50.0 °F - 48.2 °F 94% 29.68 in 4.3 mi SSW 6.9 mph - N/A   Overcast
8:00 AM 50 °F - 48 °F 91% 29.68 in 4 mi SSW 6.7 mph - - Rain Light Rain Showers
8:08 AM 50.0 °F - 48.2 °F 94% 29.65 in - SSW 5.8 mph - N/A Rain Rain
8:25 AM 50.0 °F - 48.2 °F 94% 29.65 in - SSW 4.6 mph - N/A Rain Light Rain Showers
8:37 AM 50.0 °F - 48.2 °F 94% 29.65 in - SW 5.8 mph - N/A Rain Rain Showers
8:42 AM 50.0 °F - 48.2 °F 94% 29.68 in - SW 5.8 mph - N/A Rain Rain
8:49 AM 50.0 °F - 48.2 °F 94% 29.68 in - WSW 5.8 mph - N/A Rain Rain
8:55 AM 50.0 °F - 48.2 °F 94% 29.68 in - WSW 5.8 mph - N/A Rain Rain Showers
9:00 AM 50 °F - 49 °F 95% 29.68 in 2 mi SW 6.7 mph - - Rain Rain
9:01 AM 50.0 °F - 50.0 °F 100% 29.65 in - WSW 5.8 mph - N/A Rain Rain
9:02 AM 50.0 °F - 48.2 °F 94% 29.65 in 2.5 mi SW 6.9 mph - N/A Rain Rain
9:11 AM 50.0 °F - 48.2 °F 94% 29.65 in - SSW 6.9 mph - N/A Rain Rain
9:15 AM 50.0 °F - 48.2 °F 94% 29.65 in - SSW 6.9 mph - N/A Rain Light Rain
9:19 AM 50.0 °F - 50.0 °F 100% 29.65 in - SSW 6.9 mph - N/A Rain Light Rain
9:25 AM 50.0 °F - 48.2 °F 94% 29.65 in - SSW 6.9 mph - N/A Rain Rain
9:36 AM 50.0 °F - 48.2 °F 94% 29.65 in 2.8 mi SW 10.4 mph - N/A Rain Light Rain
9:55 AM 50.0 °F - 48.2 °F 94% 29.65 in - SSW 9.2 mph - N/A Rain Rain
10:00 AM 50 °F - 49 °F 94% 29.67 in 3 mi SSW 8.9 mph - - Rain Rain
10:10 AM 50.0 °F - 48.2 °F 94% 29.65 in 3.1 mi SSW 9.2 mph - N/A Rain Light Rain
10:25 AM 50.0 °F - 48.2 °F 94% 29.65 in 3.7 mi SSW 12.7 mph - N/A   Drizzle
10:55 AM 50.0 °F - 48.2 °F 94% 29.65 in 3.7 mi SSW 16.1 mph - N/A   Heavy Drizzle
11:00 AM 50 °F - 48 °F 89% 29.67 in 4 mi SSW 17.9 mph - - Rain Heavy Rain
11:25 AM 50.0 °F - 48.2 °F 94% 29.65 in 3.7 mi SSW 16.1 mph - N/A Rain Light Rain
11:38 AM 46.4 °F 41.1 °F 44.6 °F 93% 29.65 in 4.3 mi WNW 11.5 mph - N/A Rain Light Rain Showers
11:43 AM 46.4 °F 41.1 °F 44.6 °F 93% 29.65 in 4.3 mi NW 11.5 mph - N/A Rain Heavy Rain Showers
11:48 AM 46.4 °F 41.5 °F 44.6 °F 93% 29.68 in - WNW 10.4 mph - N/A Rain Rain Showers
11:55 AM 44.6 °F 39.7 °F 44.6 °F 100% 29.68 in - WNW 9.2 mph - N/A Rain Rain Showers
12:00 PM 45 °F - 44 °F 95% 29.70 in 3 mi WNW 8.9 mph - - Rain Rain
12:03 PM 44.6 °F 39.7 °F 44.6 °F 100% 29.68 in 3.1 mi WNW 9.2 mph - N/A Rain Light Rain Showers
12:12 PM 44.6 °F 39.2 °F 44.6 °F 100% 29.71 in 3.7 mi WNW 10.4 mph - N/A Rain Light Rain
12:25 PM 44.6 °F 38.4 °F 42.8 °F 93% 29.71 in 3.1 mi WNW 12.7 mph - N/A   Heavy Drizzle
12:31 PM 44.6 °F 38.1 °F 42.8 °F 93% 29.71 in 3.1 mi West 13.8 mph - N/A   Drizzle
12:32 PM 44.6 °F 38.4 °F 42.8 °F 93% 29.71 in 3.1 mi West 12.7 mph - N/A   Heavy Drizzle
12:47 PM 44.6 °F 37.8 °F 41.0 °F 87% 29.74 in 6.2 mi West 15.0 mph - N/A   Light Drizzle
12:55 PM 44.6 °F 38.1 °F 42.8 °F 93% 29.74 in 6.2 mi West 13.8 mph - N/A   Light Drizzle
1:00 PM 45 °F - 43 °F 89% 29.76 in 12 mi West 11.2 mph - - Rain Rain
1:25 PM 46.4 °F 40.7 °F 42.8 °F 87% 29.77 in 6.2 mi West 12.7 mph 24.2 mph N/A   Mostly Cloudy
1:27 PM 44.6 °F 37.8 °F 41.0 °F 87% 29.77 in 6.2 mi West 15.0 mph - N/A   Mostly Cloudy
1:34 PM 44.6 °F 37.4 °F 41.0 °F 87% 29.77 in 6.2 mi West 16.1 mph - N/A   Overcast
1:43 PM 44.6 °F 37.8 °F 41.0 °F 87% 29.77 in 6.2 mi West 15.0 mph - N/A   Overcast
1:55 PM 44.6 °F 38.4 °F 41.0 °F 87% 29.77 in 6.2 mi West 12.7 mph - N/A   Overcast
1:57 PM 46.4 °F 40.4 °F 41.0 °F 81% 29.80 in 6.2 mi West 13.8 mph - N/A   Overcast
2:00 PM 46 °F - 41 °F 78% 29.80 in 28 mi West 13.4 mph - -   Overcast
2:09 PM 46.4 °F 40.4 °F 41.0 °F 81% 29.80 in 6.2 mi West 13.8 mph - N/A   Overcast
2:17 PM 46.4 °F 41.1 °F 41.0 °F 81% 29.80 in 6.2 mi West 11.5 mph - N/A   Overcast
2:21 PM 46.4 °F 41.1 °F 41.0 °F 81% 29.80 in 6.2 mi West 11.5 mph - N/A   Overcast
2:25 PM 46.4 °F 40.7 °F 42.8 °F 87% 29.80 in 6.2 mi West 12.7 mph - N/A   Mostly Cloudy
2:29 PM 46.4 °F 40.4 °F 41.0 °F 81% 29.80 in 6.2 mi WSW 13.8 mph - N/A   Mostly Cloudy
2:46 PM 46.4 °F 41.1 °F 42.8 °F 87% 29.80 in 6.2 mi WSW 11.5 mph - N/A   Overcast
2:55 PM 46.4 °F 41.1 °F 41.0 °F 81% 29.80 in 6.2 mi WSW 11.5 mph - N/A   Mostly Cloudy
2:59 PM 46.4 °F 40.4 °F 41.0 °F 81% 29.80 in 6.2 mi WSW 13.8 mph - N/A   Overcast
3:00 PM 47 °F - 42 °F 76% 29.83 in 19 mi WSW 15.7 mph - - Rain Drizzle
3:01 PM 46.4 °F 40.1 °F 41.0 °F 81% 29.80 in 6.2 mi WSW 15.0 mph - N/A   Overcast
3:13 PM 48.2 °F - 42.8 °F 82% 29.80 in 6.2 mi WSW 12.7 mph - N/A   Mostly Cloudy
3:25 PM 48.2 °F - 42.8 °F 82% 29.80 in 6.2 mi WSW 11.5 mph - N/A   Scattered Clouds
3:33 PM 50.0 °F - 42.8 °F 76% 29.80 in 6.2 mi WSW 11.5 mph - N/A   Scattered Clouds
3:37 PM 48.2 °F - 42.8 °F 82% 29.80 in 6.2 mi WSW 12.7 mph - N/A   Mostly Cloudy
3:55 PM 48.2 °F - 41.0 °F 76% 29.80 in 6.2 mi WSW 13.8 mph - N/A   Overcast
3:59 PM 48.2 °F - 41.0 °F 76% 29.80 in 6.2 mi WSW 12.7 mph - N/A   Scattered Clouds
4:00 PM 49 °F - 40 °F 63% 29.83 in 22 mi WSW 13.4 mph - -   Scattered Clouds
4:25 PM 50.0 °F - 35.6 °F 58% 29.83 in 6.2 mi West 16.1 mph - N/A   Unknown
4:55 PM 50.0 °F - 32.0 °F 50% 29.83 in 6.2 mi West 10.4 mph - N/A   Unknown
5:00 PM 50 °F - 32 °F 37% 29.83 in 22 mi West 11.2 mph - -  
5:25 PM 50.0 °F - 33.8 °F 54% 29.83 in 6.2 mi West 9.2 mph - N/A   Partly Cloudy
5:55 PM 48.2 °F - 35.6 °F 62% 29.83 in 6.2 mi WSW 6.9 mph - N/A   Unknown
6:00 PM 48 °F - 35 °F 50% 29.84 in 25 mi SW 6.7 mph - -   Scattered Clouds
6:25 PM 46.4 °F 42.9 °F 35.6 °F 66% 29.83 in 6.2 mi SSW 6.9 mph - N/A   Unknown
6:55 PM 44.6 °F 41.4 °F 35.6 °F 71% 29.83 in 6.2 mi South 5.8 mph - N/A   Partly Cloudy
7:00 PM 44 °F - 35 °F 63% 29.83 in 28 mi South 6.7 mph - -   Partly Cloudy
7:17 PM 42.8 °F 39.3 °F 35.6 °F 76% 29.83 in 6.2 mi South 5.8 mph - N/A   Partly Cloudy
7:25 PM 42.8 °F 38.6 °F 35.6 °F 76% 29.83 in 6.2 mi South 6.9 mph - N/A   Partly Cloudy
7:55 PM 41.0 °F 36.4 °F 35.6 °F 81% 29.80 in 6.2 mi SSE 6.9 mph - N/A   Unknown
8:00 PM 42 °F - 36 °F 70% 29.83 in 25 mi South 6.7 mph - -  
8:25 PM 42.8 °F 38.6 °F 35.6 °F 76% 29.80 in 6.2 mi South 6.9 mph - N/A   Unknown
8:55 PM 41.0 °F 35.8 °F 35.6 °F 81% 29.80 in 6.2 mi South 8.1 mph - N/A   Partly Cloudy
9:00 PM 41 °F - 35 °F 73% 29.82 in 22 mi SSE 6.7 mph - -   Scattered Clouds
9:25 PM 41.0 °F 36.4 °F 35.6 °F 81% 29.80 in 6.2 mi South 6.9 mph - N/A   Unknown
9:55 PM 37.4 °F 32.8 °F 33.8 °F 87% 29.77 in 6.2 mi South 5.8 mph - N/A   Unknown
10:00 PM 38 °F - 34 °F 80% 29.80 in 18 mi South 6.7 mph - -  
10:25 PM 39.2 °F 35.0 °F 33.8 °F 81% 29.77 in 6.2 mi South 5.8 mph - N/A   Partly Cloudy
10:55 PM 39.2 °F 35.9 °F 35.6 °F 87% 29.77 in 6.2 mi South 4.6 mph - N/A   Partly Cloudy
11:00 PM 38 °F - 34 °F 81% 29.79 in 16 mi South 4.5 mph - -   Scattered Clouds
11:04 PM 37.4 °F 32.8 °F 33.8 °F 87% 29.77 in 6.2 mi South 5.8 mph - N/A   Unknown
11:25 PM 39.2 °F 34.2 °F 33.8 °F 81% 29.77 in 6.2 mi South 6.9 mph - N/A   Unknown
11:55 PM 37.4 °F 32.1 °F 33.8 °F 87% 29.74 in 6.2 mi SSE 6.9 mph - N/A   Unknown